,

(GMT )
Squamish

Weather History for CWSK - April, 2013

Change the Weather History Date:

Tuesday, April 2, 2013

  Actual Average Record
Temperature  
Mean Temperature 51 °F -  
Max Temperature 59 °F - - ()
Min Temperature 43 °F - - ()
Degree Days  
Heating Degree Days 14    
Growing Degree Days 1 (Base 50)    
Moisture  
Dew Point 42 °F    
Average Humidity 78    
Maximum Humidity 93    
Minimum Humidity 52    
Precipitation  
Precipitation 0.00 in - - ()
Sea Level Pressure  
Sea Level Pressure 30.15 in    
Wind  
Wind Speed 3 mph ()    
Max Wind Speed 10 mph    
Max Gust Speed -    
T = Trace of Precipitation, MM = Missing Value Source: Averaged Metar Reports

Daily Weather History Graph

Daily Weather History Graph

Search for Another Location

Airport or City:

Trip Planner

Search our weather history database for the weather conditions in past years. The results will help you decide how hot, cold, wet, or windy it might be!

Date:

Astronomy

Apr. 02, 2013 Rise Set
Actual Time 6:46 AM PDT 7:46 PM PDT
Civil Twilight 6:13 AM PDT 8:19 PM PDT
Nautical Twilight 5:34 AM PDT 8:58 PM PDT
Astronomical Twilight 4:52 AM PDT 9:41 PM PDT
Moon 2:19 AM PDT (4/2) 11:20 AM PDT (4/2)
Length of Visible Light 14h 05m
Length of Day
13h 00m
Waning Gibbous, 55% of the Moon is Illuminated
Apr 2
Waning Gibbous
Apr 2
Last Quarter
Apr 10
New
Apr 18
First Quarter
Apr 25
Full

Hourly Weather History & Observations

Time (PDT) Temp. Windchill Dew Point Humidity Pressure Visibility Wind Dir Wind Speed Gust Speed Precip Events Conditions
12:00 AM 44.4 °F - 42.3 °F 92% 30.11 in - ENE 1.2 mph - N/A   Unknown
1:00 AM 44.8 °F 43.3 °F 43.0 °F 93% 30.12 in - North 3.5 mph - N/A   Unknown
2:00 AM 43 °F - 41 °F 92% 30.14 in - NE 1.2 mph - -  
2:00 AM 43.3 °F - 41.4 °F 93% 30.14 in - NE 1.2 mph - N/A   Unknown
3:00 AM 43.9 °F - 41.4 °F 91% 30.14 in - North 1.2 mph - N/A   Unknown
4:00 AM 44.1 °F - 41.4 °F 90% 30.14 in - NNE 1.2 mph - N/A   Unknown
5:00 AM 44 °F - 40 °F 83% 30.14 in - NNW 2.3 mph - -  
5:00 AM 43.7 °F - 40.5 °F 88% 30.14 in - NNW 2.3 mph - N/A   Unknown
6:00 AM 43.9 °F - 40.5 °F 88% 30.14 in - NNW 2.3 mph - N/A   Unknown
7:00 AM 44.2 °F - 40.3 °F 86% 30.15 in - North 1.2 mph - N/A   Unknown
8:00 AM 45 °F - 40 °F 78% 30.16 in - Calm Calm - -  
8:00 AM 44.6 °F - 40.5 °F 85% 30.16 in - Calm Calm - N/A   Unknown
9:00 AM 45.1 °F - 40.8 °F 85% 30.16 in - Calm Calm - N/A   Unknown
10:00 AM 46.8 °F - 41.2 °F 81% 30.17 in - North 1.2 mph - N/A   Unknown
11:00 AM 49 °F - 43 °F 71% 30.17 in - NW 2.3 mph - -  
11:00 AM 49.5 °F - 42.6 °F 77% 30.17 in - NW 2.3 mph - N/A   Unknown
12:00 PM 54.3 °F - 44.1 °F 68% 30.15 in - SSE 1.2 mph - N/A   Unknown
1:00 PM 57.4 °F - 44.6 °F 62% 30.14 in - SSE 10.4 mph - N/A   Unknown
2:00 PM 55 °F - 45 °F 59% 30.15 in - SSE 8.1 mph - -  
2:00 PM 55.2 °F - 44.6 °F 67% 30.15 in - SSE 8.1 mph - N/A   Unknown
3:00 PM 54.0 °F - 44.2 °F 70% 30.15 in - SE 8.1 mph - N/A   Unknown
4:00 PM 56.3 °F - 44.8 °F 65% 30.14 in - SSE 9.2 mph - N/A   Unknown
5:00 PM 56 °F - 43 °F 52% 30.14 in - SSE 6.9 mph - -  
5:00 PM 55.9 °F - 43.3 °F 63% 30.14 in - SSE 6.9 mph - N/A   Unknown
6:00 PM 55.4 °F - 43.0 °F 63% 30.14 in - SSE 5.8 mph - N/A   Unknown
7:00 PM 53.4 °F - 43.2 °F 68% 30.14 in - SSE 3.5 mph - N/A   Unknown
8:00 PM 51 °F - 43 °F 66% 30.14 in - SE 4.6 mph - -  
8:00 PM 51.1 °F - 43.2 °F 74% 30.14 in - SE 4.6 mph - N/A   Unknown
9:00 PM 49.3 °F - 43.0 °F 79% 30.16 in - SE 3.5 mph - N/A   Unknown
10:00 PM 45.7 °F - 42.6 °F 89% 30.17 in - ESE 1.2 mph - N/A   Unknown
11:00 PM 46 °F - 43 °F 84% 30.18 in - NW 1.2 mph - -  
11:00 PM 45.5 °F - 42.6 °F 90% 30.18 in - NW 1.2 mph - N/A   Unknown